Theta_e
359 359 361 359 358 359 359 359 359 360 362 363 363 363 362 362 362 363 363 363 364 364 363 363 364 365 366 366 365 365 366 367 367 367 367 367 368 367 367 366 367 367 367 367 367 366 364 364 364 363 362 364 364 364 363 361 361 361 361 361 358 361 360 360 360 359 358 358 358 359 358 358 357 356 355 354 355 354 355 355 352 353 355 355 355
359 361 359 362 356 358 358 359 360 359 361 359 360 361 362 362 363 363 363 363 364 363 363 364 364 364 366 367 366 366 367 367 367 367 367 367 367 367 366 366 366 366 367 367 366 365 364 364 363 363 362 363 361 362 363 363 361 362 361 359 360 361 360 359 360 360 359 358 358 358 357 356 356 356 356 355 355 355 355 354 352 350 359 357 357
360 363 363 362 358 358 358 359 359 358 360 361 362 362 362 361 362 363 363 363 363 364 365 364 365 365 365 366 366 366 366 367 367 366 366 366 366 366 367 367 366 366 366 365 366 365 364 364 362 364 363 362 361 362 362 364 361 361 362 361 361 360 360 361 360 360 359 359 358 358 357 357 357 356 356 355 355 355 355 354 353 351 354 357 356
360 361 363 359 359 357 362 358 358 361 362 361 362 362 362 361 359 363 363 363 363 362 364 364 364 364 365 365 365 366 366 367 366 366 366 367 367 367 366 367 366 366 365 365 364 364 364 365 365 365 363 363 363 364 364 363 362 362 361 362 360 360 361 360 358 358 358 357 356 354 355 359 358 356 355 355 354 354 354 355 356 355 356 357 356
358 360 361 360 358 360 361 361 358 360 361 361 362 362 361 361 362 362 362 363 364 363 363 363 363 363 364 365 365 365 366 365 365 366 366 366 367 366 366 366 366 366 364 364 363 364 365 366 366 365 365 363 364 364 362 362 363 362 361 362 360 360 360 359 358 357 358 358 356 356 358 357 358 356 355 353 354 352 354 354 355 355 357 357 356
357 360 363 362 359 364 362 361 359 361 363 364 363 363 363 363 363 362 364 364 364 363 363 363 363 363 363 364 365 365 365 365 365 365 365 366 365 365 366 366 366 365 363 363 362 363 364 365 365 365 364 364 361 364 363 363 363 362 361 361 361 359 359 358 358 357 358 358 358 357 357 357 356 355 355 354 353 352 353 353 353 355 355 356 356
361 362 363 363 363 364 363 362 360 362 363 363 363 363 364 364 364 364 365 364 364 363 364 364 364 363 363 363 364 364 364 364 364 364 364 365 365 365 366 366 366 365 363 363 363 362 362 362 363 363 364 363 364 364 364 364 364 363 362 360 361 359 358 358 358 357 357 361 358 359 355 355 356 355 355 356 354 352 353 353 354 354 354 354 353
362 363 362 363 365 364 363 362 362 362 362 359 360 363 364 364 363 364 364 364 364 365 365 364 364 363 363 362 362 363 364 364 364 365 365 365 365 367 366 366 366 365 365 363 362 363 362 361 361 362 363 364 364 364 364 364 364 362 362 361 361 360 359 358 358 358 358 365 362 361 359 355 358 356 355 356 354 354 354 354 354 355 354 353 352
360 363 363 364 366 362 362 362 362 363 362 360 361 361 364 363 363 363 364 364 365 365 365 364 363 363 363 362 362 363 364 364 364 364 364 365 365 366 366 366 366 365 362 360 362 362 362 363 363 362 362 362 363 364 364 363 364 364 362 360 360 360 359 359 359 358 362 363 364 362 359 359 352 356 355 356 356 355 354 354 355 354 354 353 352
360 362 363 366 363 362 361 362 363 363 364 364 363 363 363 363 364 364 364 365 365 364 364 364 363 363 362 361 361 363 364 364 364 364 363 364 365 365 365 365 365 361 363 361 362 362 362 363 362 361 361 361 362 363 363 362 363 363 364 362 359 362 360 359 359 357 363 364 365 364 359 357 357 354 355 356 356 355 354 353 353 353 354 353 350
359 362 363 364 364 362 362 362 362 363 364 365 363 363 363 364 364 364 363 364 365 364 364 363 363 362 361 361 362 363 363 364 364 364 364 364 365 364 365 364 364 363 362 361 359 361 362 361 361 361 361 361 361 361 361 361 361 362 363 363 362 362 361 360 358 360 363 365 364 363 358 355 359 355 355 355 355 356 355 353 353 355 356 353 354
358 362 364 364 366 362 361 361 362 363 364 364 364 364 364 365 364 364 364 363 363 363 363 363 362 362 361 362 363 363 363 364 364 364 364 364 364 364 364 364 364 364 364 362 361 361 361 360 361 361 360 360 361 360 360 360 360 360 359 361 361 361 361 361 362 362 363 362 360 359 358 360 360 353 355 355 354 355 354 354 354 353 354 354 354
358 360 363 365 366 363 362 361 361 363 364 364 364 364 364 364 364 364 364 363 363 363 362 362 362 362 362 363 362 362 363 363 363 363 363 363 363 363 364 364 364 363 362 360 361 360 360 360 360 359 358 358 360 359 360 360 359 360 359 360 361 361 360 360 365 363 364 364 362 360 360 362 359 358 356 354 354 355 355 356 355 354 353 354 354
358 361 363 364 364 364 362 361 362 363 363 363 364 363 364 365 364 363 363 363 363 362 362 362 362 363 363 363 363 363 363 364 363 364 364 363 363 363 364 364 363 363 362 361 361 361 360 360 360 359 358 358 357 358 359 359 360 360 360 360 359 361 360 358 360 363 364 363 364 362 359 361 362 360 355 355 353 355 354 354 354 354 353 353 354
359 360 362 365 365 364 362 361 362 363 364 363 364 363 364 364 364 364 364 363 363 363 362 362 362 363 363 363 364 364 364 364 363 363 363 363 363 364 363 362 363 363 361 362 361 356 358 358 357 358 357 358 357 357 358 359 359 360 359 359 359 360 361 360 361 363 363 364 364 363 361 364 358 358 359 355 354 354 356 356 355 354 354 353 353
360 361 362 365 365 365 364 363 362 363 364 363 364 365 365 364 364 364 364 363 363 363 363 363 364 363 363 363 363 363 363 363 363 363 364 363 364 362 362 363 363 364 364 362 357 353 356 357 357 356 356 357 357 357 358 357 358 359 359 360 361 359 360 362 363 362 363 363 365 366 362 363 357 359 359 356 355 355 356 356 355 355 355 353 352
360 363 360 360 361 361 364 366 364 363 363 363 363 365 365 364 364 364 364 364 364 364 364 364 364 364 364 364 363 363 363 363 363 363 362 363 362 362 363 364 364 364 362 363 359 355 356 356 357 357 357 356 357 357 357 357 357 358 359 360 361 360 361 361 363 362 358 361 365 364 364 364 359 358 359 357 356 354 355 357 356 356 356 352 353
361 363 363 364 364 365 363 364 366 367 367 364 363 365 365 365 365 364 364 364 364 364 364 364 364 364 364 364 364 363 362 363 364 363 363 363 361 362 362 363 362 360 361 363 356 355 355 356 356 356 357 356 357 357 358 358 359 359 359 359 360 359 360 361 364 363 363 357 365 364 361 361 357 359 359 358 356 355 356 356 357 356 355 353 353
361 360 363 364 364 364 363 365 368 366 368 367 367 367 364 365 364 364 364 365 365 365 364 364 365 364 364 364 364 363 363 364 364 364 363 362 363 362 364 363 361 359 362 361 357 354 354 355 356 356 356 356 357 358 360 360 360 359 359 358 358 360 360 363 363 364 363 363 361 362 360 359 359 359 359 358 357 356 356 357 357 357 356 355 354
362 361 362 364 364 364 365 364 366 366 366 365 366 367 366 365 365 365 365 365 365 364 365 365 364 364 364 364 364 366 365 366 364 365 363 363 363 363 361 363 361 362 363 362 361 359 358 358 357 356 356 357 358 359 360 360 360 360 359 360 360 360 362 362 364 364 363 362 357 360 359 358 358 360 360 359 357 356 356 357 356 356 357 356 355
361 363 364 363 363 364 365 364 366 366 364 366 365 366 366 366 366 365 365 365 365 365 364 364 365 365 365 365 365 367 368 370 369 365 365 365 364 362 362 361 359 363 363 364 362 360 360 361 360 359 359 359 360 360 361 358 358 358 358 357 359 365 362 364 364 364 364 363 365 362 357 357 358 359 360 359 357 357 356 357 357 356 356 355 354
356 359 364 363 361 364 364 364 364 365 364 366 365 367 367 366 367 368 367 367 366 365 367 366 364 365 363 365 367 366 366 367 367 360 362 362 362 362 361 358 361 364 363 362 361 357 356 358 360 360 360 362 360 363 364 359 356 356 357 358 364 363 363 364 364 363 361 364 362 363 360 359 359 359 359 360 358 357 357 357 358 357 356 356 355
354 355 359 361 361 362 363 362 364 365 365 367 366 366 367 368 367 366 366 365 366 367 365 365 366 366 367 365 366 367 365 367 366 364 363 360 356 358 360 360 360 361 361 359 360 353 354 356 354 355 358 360 366 358 358 358 363 359 360 363 362 362 363 363 364 363 362 361 363 359 357 357 358 359 359 359 359 357 357 357 358 358 357 356 356
354 355 356 359 359 359 362 362 364 365 365 364 365 365 367 370 365 364 365 365 366 366 366 366 366 368 368 369 365 367 366 367 361 362 358 357 360 365 363 362 362 363 358 362 360 354 354 356 353 356 362 359 361 356 357 360 357 361 362 359 359 359 361 361 360 362 364 363 364 355 356 357 357 358 359 359 357 358 358 358 358 358 357 357 356
355 356 357 358 360 360 360 362 364 365 364 364 364 363 368 363 362 362 365 363 364 364 364 366 366 367 367 366 365 365 365 364 364 362 359 360 359 360 360 362 366 367 360 365 362 360 357 359 359 357 359 359 358 358 358 356 360 359 358 359 360 361 359 360 357 360 363 366 364 355 354 357 358 357 358 360 358 358 358 358 358 358 358 357 357
355 355 354 358 359 360 360 361 364 365 365 365 363 365 367 361 364 362 363 364 363 363 365 365 364 365 365 364 365 366 365 365 366 364 362 362 360 356 359 362 365 366 367 363 361 360 358 359 359 359 358 359 358 358 357 355 356 355 355 358 358 360 360 358 359 359 363 364 362 354 354 356 358 358 358 359 360 359 357 357 359 358 358 358 357
353 354 356 357 358 359 361 361 360 364 365 365 364 365 362 364 363 363 362 359 361 362 362 363 365 367 367 367 362 361 362 361 363 364 363 362 359 357 358 363 365 364 366 360 361 360 358 358 359 360 360 357 357 357 357 357 358 356 355 356 358 358 359 358 358 360 361 364 362 354 354 356 356 357 358 360 360 360 360 359 359 358 359 359 358
352 353 355 357 358 358 362 361 361 362 363 364 364 362 365 363 364 365 364 360 360 360 360 361 365 367 370 368 365 363 361 361 363 362 363 364 361 362 363 361 363 361 365 362 359 357 357 358 361 361 359 360 356 358 356 354 353 355 351 351 352 351 354 354 355 357 356 358 362 358 356 355 356 357 358 359 361 361 360 360 360 359 359 358 359
351 352 354 356 357 359 361 361 361 363 362 362 362 361 365 366 365 364 362 362 363 361 362 365 364 365 366 368 368 363 362 362 362 363 363 364 363 363 360 360 363 362 363 359 360 359 358 359 359 358 359 359 357 357 355 351 353 351 349 347 348 349 350 352 352 351 352 351 356 360 356 354 355 357 358 359 360 359 360 361 360 359 359 359 359
352 355 354 355 358 359 359 360 361 363 362 360 362 363 365 364 366 367 367 365 362 363 365 363 362 363 363 368 367 365 363 360 361 362 362 362 362 364 363 361 360 362 361 360 361 358 357 358 359 359 358 358 356 355 352 349 347 346 348 346 346 345 349 348 350 349 352 352 354 358 356 355 356 357 357 358 358 358 359 359 360 359 359 359 359
354 355 355 355 358 359 359 360 361 363 362 359 361 363 366 366 366 366 367 368 366 366 365 364 363 363 363 368 371 367 363 361 362 363 364 362 363 364 362 363 361 363 363 361 362 361 359 358 360 357 356 355 352 352 351 347 347 347 348 347 347 347 348 350 347 348 348 350 352 356 358 355 356 357 358 357 358 358 358 359 360 360 358 359 359
353 354 355 358 357 358 358 360 361 363 363 360 362 362 364 364 367 366 365 368 369 367 366 367 364 363 366 367 370 368 366 364 365 367 365 363 363 364 364 364 364 363 364 362 361 360 358 359 361 360 359 359 353 351 351 346 348 347 347 347 347 345 346 345 342 343 346 348 351 353 354 354 358 357 356 357 358 358 359 358 358 359 359 359 359
354 355 355 356 354 357 358 361 362 363 364 361 360 362 364 365 365 366 367 368 370 369 367 366 366 367 368 370 369 369 369 366 364 367 367 365 365 366 364 365 365 365 365 366 364 363 360 360 359 359 358 354 350 349 351 347 347 348 346 346 345 345 347 346 346 344 344 344 348 349 351 353 354 359 356 356 355 357 359 360 358 358 359 358 358
352 354 356 355 355 356 356 358 360 361 364 361 361 360 362 363 364 364 367 370 368 367 367 368 367 367 369 369 369 371 368 366 368 369 368 367 366 366 366 364 364 367 366 368 362 361 359 360 358 356 350 349 347 349 346 347 346 346 347 348 348 349 347 346 346 345 344 346 348 349 349 349 352 353 357 357 356 355 357 359 359 358 357 358 358
353 354 356 358 359 357 357 357 360 361 363 362 361 361 362 361 361 364 364 367 366 366 365 367 367 368 368 366 370 370 373 372 372 371 369 367 364 363 364 365 367 368 365 363 363 362 361 358 354 352 350 347 347 349 349 347 346 347 348 348 348 348 349 347 348 347 347 350 349 348 349 349 349 351 352 351 357 354 355 357 358 358 358 359 358
354 356 357 359 359 359 361 357 360 361 362 363 363 362 361 363 363 363 365 369 364 365 365 365 366 365 366 367 369 371 372 374 372 371 369 366 364 364 363 367 366 366 364 365 364 360 360 358 354 350 347 347 349 348 349 347 347 347 348 348 348 349 347 347 348 346 346 349 350 350 349 349 351 349 353 350 350 360 355 354 356 357 358 358 359
356 359 359 361 361 360 363 359 357 361 362 363 364 363 363 364 365 365 366 367 366 367 367 367 367 368 369 366 367 370 371 371 371 370 367 365 363 365 365 366 367 364 363 363 361 359 357 351 352 351 351 348 347 348 347 347 347 347 347 348 347 348 349 349 348 347 348 349 348 346 350 351 354 352 357 350 353 354 355 355 354 355 356 357 357
358 359 361 361 362 361 362 362 358 358 362 362 364 363 364 365 364 364 366 366 367 365 366 368 370 368 369 369 370 370 369 370 371 369 366 363 358 362 363 365 365 363 362 361 360 358 354 352 350 352 351 350 347 346 346 346 347 347 347 345 348 346 347 348 349 349 347 347 348 348 348 348 350 353 355 355 350 353 354 357 356 355 356 356 355
357 359 360 362 362 361 360 362 361 360 361 365 366 366 365 368 366 367 367 368 370 369 367 368 368 370 368 370 371 370 369 369 369 369 365 365 362 359 362 363 363 363 362 360 358 353 352 352 351 351 352 351 348 348 347 348 347 346 345 346 348 349 349 347 349 348 347 344 344 345 344 348 348 352 355 360 356 358 357 357 356 358 359 355 356
357 358 361 361 362 362 361 362 363 361 364 369 368 363 363 364 362 365 365 367 369 368 369 368 367 367 367 368 369 370 369 368 368 367 363 362 362 363 359 363 363 361 359 355 350 350 350 351 351 351 350 350 350 346 347 346 345 346 344 346 347 348 348 347 347 348 347 344 344 344 342 345 348 348 348 351 353 352 358 360 359 357 357 356 353
358 358 359 360 361 360 360 360 364 364 363 367 366 362 362 363 364 361 358 362 366 368 367 366 366 366 368 369 369 368 368 367 366 366 363 360 363 364 363 363 362 360 357 351 352 352 353 353 352 352 349 348 346 347 347 346 343 341 344 344 345 347 346 347 345 344 343 342 341 342 342 343 344 344 347 348 349 350 352 353 352 355 357 359 358
356 357 358 359 361 362 361 361 362 365 364 364 364 364 364 364 362 359 357 358 362 363 366 366 366 366 370 371 370 370 368 367 366 367 365 364 364 361 362 362 360 354 353 354 354 351 351 350 349 346 349 346 345 344 346 345 341 336 335 337 339 343 345 344 341 342 341 340 340 341 341 337 336 340 342 344 346 346 348 350 352 352 354 353 355
356 356 359 360 361 361 362 363 362 363 364 366 365 364 365 367 364 360 359 357 362 367 366 367 367 364 366 371 370 369 369 368 368 367 361 360 360 361 359 358 355 354 353 353 352 350 349 347 348 346 342 346 345 347 348 347 337 339 340 336 332 331 340 340 340 340 337 337 337 335 335 333 336 342 343 341 341 345 344 347 351 352 353 353 353
356 356 357 358 359 361 363 363 364 365 364 366 366 367 367 368 369 367 366 363 362 363 364 365 366 365 364 368 370 369 364 361 360 359 360 360 359 358 356 354 355 356 354 351 351 350 349 348 347 348 347 341 339 341 346 347 345 341 332 332 332 330 325 334 335 337 337 334 333 332 334 334 335 340 338 336 336 342 343 345 348 349 350 350 351
356 356 356 357 358 361 363 365 364 365 365 365 367 368 368 369 371 371 370 369 365 362 360 358 360 361 360 360 360 362 362 360 359 359 358 359 359 358 356 354 354 354 354 352 349 349 350 349 349 347 346 342 338 339 344 345 344 345 339 334 331 328 328 331 330 336 336 334 332 331 333 332 333 337 336 337 341 340 339 342 345 346 346 347 347
356 357 357 358 360 361 364 365 365 365 364 366 368 368 366 363 367 363 357 356 355 356 353 354 354 356 356 357 360 359 359 360 359 358 359 358 359 357 356 354 353 354 353 350 351 349 349 348 347 347 345 346 344 337 338 344 344 345 345 342 340 333 332 335 328 329 336 334 334 331 333 331 336 336 336 337 336 336 337 338 341 341 341 342 343
355 357 358 359 361 362 365 366 366 366 366 366 368 368 365 363 362 360 358 356 354 355 359 358 357 358 360 360 358 360 361 359 358 359 359 359 358 357 357 355 354 353 353 352 350 348 347 349 349 348 346 347 345 340 338 337 343 343 344 343 343 342 340 334 329 330 326 330 331 328 329 331 329 330 331 332 332 333 335 337 337 337 339 340 340
355 356 357 359 361 364 365 366 366 366 367 368 367 368 364 363 363 362 360 358 356 357 359 361 362 362 359 360 359 358 361 360 358 360 360 360 359 357 357 355 353 352 351 350 349 348 349 350 350 349 349 348 345 342 339 338 337 337 343 342 341 342 342 338 335 333 328 325 327 328 328 328 330 328 328 329 329 333 336 334 336 336 336 338 337
353 355 357 359 361 364 366 367 366 368 367 369 369 368 366 364 363 362 359 361 361 359 359 360 359 361 359 360 359 357 360 359 359 359 360 360 358 357 357 356 355 352 352 349 347 348 349 349 349 348 347 347 346 345 343 341 340 337 339 340 340 338 337 336 337 337 331 327 324 324 327 330 329 331 330 331 332 335 334 334 334 332 335 336 337
354 358 358 359 361 364 366 367 367 367 368 369 370 369 368 366 363 362 361 360 361 361 359 358 360 361 360 359 359 359 357 357 357 358 360 360 358 358 356 356 354 349 348 347 347 347 348 349 349 348 347 346 347 345 344 343 342 341 341 340 337 336 336 334 333 333 333 330 323 322 324 325 326 329 333 330 331 333 334 334 335 335 334 334 335
353 355 357 359 361 363 365 367 369 368 369 368 370 368 368 367 365 364 363 362 362 361 359 359 359 360 359 358 359 358 357 357 356 359 358 359 359 358 356 354 351 349 348 347 347 345 345 346 347 348 347 346 345 344 343 344 343 342 341 340 338 336 335 332 332 332 331 329 328 325 325 326 327 326 332 333 334 333 334 336 334 335 336 335 333
Wind_Speed
7 9 6 10 11 14 14 14 11 9 15 14 14 13 16 16 16 15 14 13 13 13 13 13 13 12 12 12 11 11 10 10 12 12 13 13 13 12 12 13 13 13 13 13 13 13 13 13 13 13 13 13 12 12 12 12 12 11 11 11 10 11 10 10 11 11 10 10 10 9 10 10 9 9 8 8 7 6 7 6 5 6 8 10 12
11 10 10 11 12 13 13 12 11 12 12 15 15 13 15 15 14 14 14 13 13 12 12 12 12 12 12 12 11 11 10 11 11 12 12 12 11 11 12 12 12 12 12 13 13 13 13 12 13 12 13 13 12 12 12 12 13 12 12 11 10 10 9 11 11 10 9 8 10 10 10 10 9 9 9 8 7 7 5 5 4 3 7 12 11
12 10 10 12 13 11 17 17 13 15 15 13 14 13 13 14 13 12 13 13 13 12 11 11 11 11 11 11 11 10 10 10 11 11 11 11 11 11 11 11 11 11 12 12 12 12 12 11 12 12 13 13 12 12 12 13 13 12 12 12 10 9 10 13 11 10 8 7 8 10 11 11 9 9 9 8 7 7 6 6 9 3 9 12 11
12 10 11 14 14 11 12 18 18 14 14 14 13 13 13 15 9 11 13 12 12 12 11 11 11 11 11 10 10 10 10 10 10 10 10 10 10 11 11 11 11 11 11 12 12 11 11 11 11 12 12 12 11 11 11 12 12 11 12 12 12 11 10 11 10 8 7 5 3 1 4 6 8 9 9 8 7 7 7 8 10 10 11 10 12
10 9 10 12 12 12 13 14 15 15 13 13 13 13 13 14 13 13 12 12 12 11 11 11 10 10 10 10 10 10 9 9 9 10 10 10 10 10 10 10 11 11 11 11 11 11 11 10 11 12 11 11 11 11 11 12 11 12 12 11 10 10 9 8 7 6 5 4 3 4 4 6 7 9 8 7 7 7 7 8 9 8 10 10 11
10 10 11 11 13 13 13 14 14 13 12 10 12 12 11 11 12 12 11 11 11 11 10 10 10 9 9 9 9 9 9 9 9 9 9 9 9 10 10 10 10 10 10 11 11 11 11 11 10 10 10 10 10 9 10 10 10 12 11 10 9 9 8 7 6 3 2 3 8 2 4 5 6 7 7 7 8 7 7 8 9 8 8 10 10
12 10 11 11 10 12 10 14 14 14 11 10 9 11 10 10 10 11 11 11 10 10 10 9 9 9 8 8 8 8 8 8 8 8 9 9 9 10 10 9 9 10 10 10 11 11 11 10 9 9 9 9 9 9 9 9 9 11 11 11 9 7 6 6 4 3 2 4 2 3 4 5 6 6 8 6 7 7 7 7 8 8 9 7 7
10 9 10 11 10 12 11 12 13 14 13 11 8 9 9 10 10 11 11 11 10 9 9 9 8 8 7 7 7 8 7 7 8 8 8 9 9 10 9 9 9 10 10 10 10 10 11 10 9 8 8 8 8 9 9 9 10 10 9 10 9 6 5 4 3 2 2 2 3 2 3 5 5 5 8 7 6 6 7 6 7 8 9 7 9
10 10 9 10 12 15 14 11 11 14 14 13 11 9 9 9 10 11 11 11 10 9 9 8 8 7 7 7 7 7 7 7 7 8 8 9 9 9 9 8 9 9 10 10 9 10 10 9 9 9 8 8 8 8 9 10 9 10 9 8 9 8 4 4 3 3 4 3 1 2 3 3 4 5 8 7 6 6 7 5 7 8 10 7 4
10 10 9 8 12 15 13 11 9 12 13 12 11 10 11 9 9 10 10 10 10 10 9 8 7 7 7 7 7 7 7 7 7 8 8 8 8 8 8 8 8 9 10 9 10 9 9 10 9 9 9 8 8 9 8 9 10 10 10 10 9 9 8 7 6 4 4 2 1 0 4 4 3 5 9 6 6 6 6 5 7 4 9 10 1
11 9 9 9 13 14 13 11 10 10 13 12 11 9 11 10 9 10 9 10 10 10 9 8 7 7 6 7 7 7 7 7 7 7 7 7 7 7 7 8 9 9 9 10 10 9 9 9 9 10 10 10 9 9 9 9 9 10 11 10 9 8 8 7 4 1 4 3 1 2 5 2 2 5 10 8 6 6 5 5 6 9 8 11 9
11 10 9 10 14 13 11 10 9 9 12 11 11 11 11 11 10 10 9 10 9 9 9 8 8 7 7 7 7 6 6 7 7 7 6 6 6 7 7 8 9 9 10 10 9 9 9 8 8 9 9 8 9 10 10 9 9 9 9 10 10 9 8 7 6 4 3 3 3 2 3 3 2 9 8 8 7 5 4 5 7 8 8 8 9
11 10 10 11 11 13 11 10 9 8 11 10 11 11 11 11 10 10 9 10 9 9 9 8 8 7 7 7 7 6 6 6 6 6 6 5 5 6 7 8 9 9 10 10 10 10 10 8 8 8 7 7 8 9 10 8 9 9 7 7 9 9 8 7 4 3 3 3 2 1 3 3 4 7 5 7 8 8 5 5 3 7 7 8 8
11 11 11 11 10 13 13 11 10 12 12 12 11 13 11 12 11 10 10 10 9 9 9 9 8 8 7 7 6 6 6 6 6 6 5 5 5 5 7 8 8 9 10 11 12 13 8 8 9 8 7 6 8 8 8 9 7 7 6 7 6 8 9 4 3 1 2 3 3 2 2 2 5 6 5 6 6 8 6 5 3 5 7 8 8
11 12 11 10 10 11 15 12 12 13 12 11 11 11 11 10 9 10 11 10 10 9 9 8 8 7 7 6 6 6 5 5 5 5 5 5 5 5 6 6 8 8 10 11 17 13 9 8 7 7 8 9 8 8 7 7 7 7 7 7 5 6 7 5 4 1 2 1 2 1 2 3 10 5 3 7 6 8 8 8 6 5 5 8 9
12 12 13 11 11 11 10 13 13 13 13 11 10 11 11 10 10 11 11 10 10 9 8 7 7 7 6 6 5 5 5 4 5 5 4 4 4 4 5 6 8 9 10 11 15 5 8 6 8 6 6 6 7 8 7 7 7 7 6 7 7 7 6 5 3 2 1 1 3 1 1 5 10 6 5 7 7 7 8 8 8 8 6 8 8
11 11 12 13 15 14 13 13 14 15 13 12 11 11 11 11 11 11 10 10 9 9 8 7 7 6 6 5 5 5 4 4 4 4 4 3 3 4 5 6 7 8 8 11 11 1 5 6 7 6 5 5 6 6 6 6 6 5 6 6 7 6 6 5 2 1 3 2 1 2 0 3 9 7 6 6 9 7 8 8 9 9 6 7 7
11 11 10 11 11 11 12 13 14 12 10 11 12 12 12 12 11 10 10 10 9 9 8 8 7 6 5 5 5 5 5 5 4 4 3 3 2 3 3 5 5 6 8 12 8 4 4 6 7 5 5 4 4 5 6 6 5 5 6 5 4 4 4 5 2 1 1 2 1 1 6 6 8 7 7 7 8 8 9 8 9 9 6 7 7
11 11 11 10 11 11 11 11 12 11 11 9 9 11 12 11 11 10 10 9 9 9 8 8 7 6 6 6 6 6 5 5 5 4 3 2 2 3 5 3 4 4 6 7 6 3 2 5 5 4 4 4 4 4 5 5 4 4 5 4 4 4 4 5 1 2 2 3 1 1 5 5 3 5 7 7 8 8 9 9 9 10 9 7 9
10 11 10 10 10 11 10 10 10 10 10 9 9 10 11 11 10 10 9 9 9 9 9 8 7 7 7 6 6 6 6 6 5 4 5 2 3 2 4 4 4 5 6 6 5 2 4 4 4 3 3 4 3 3 3 4 4 5 3 5 6 5 3 1 0 0 1 1 2 5 3 3 1 4 6 7 8 9 9 9 10 10 9 9 10
8 10 9 9 10 10 11 9 10 10 10 9 8 9 10 12 10 11 10 10 9 9 9 8 8 7 8 7 6 6 4 3 5 4 5 4 4 2 2 4 4 5 5 5 4 1 1 2 3 4 4 4 4 4 2 3 2 4 6 5 8 6 1 0 1 2 2 0 2 4 6 3 1 2 6 7 9 9 9 9 9 10 10 10 10
10 9 9 9 9 9 10 9 9 10 9 7 6 7 8 10 9 10 9 9 9 9 8 7 8 6 7 5 5 3 3 3 2 2 3 2 4 5 2 2 3 3 3 2 2 2 1 1 1 2 3 3 5 3 3 6 3 2 3 7 7 3 1 2 1 1 1 3 1 6 4 3 2 3 5 7 9 10 9 10 10 10 10 11 10
10 10 9 10 9 9 9 9 9 9 10 8 6 7 9 7 8 8 7 9 8 9 7 7 6 5 5 5 4 3 3 2 2 1 3 3 4 2 2 3 1 1 1 1 3 4 4 3 2 3 3 6 6 1 1 2 2 8 8 5 3 2 3 2 3 1 1 1 2 6 3 1 2 3 4 6 9 10 10 11 11 11 11 10 11
10 10 10 9 9 9 9 9 10 10 9 7 7 7 7 7 7 7 6 7 7 7 7 6 5 5 5 4 4 3 3 3 2 4 5 5 4 9 7 6 7 6 1 4 8 5 7 9 6 7 9 4 2 2 3 1 3 3 3 3 2 4 4 4 3 2 2 2 3 4 1 2 3 3 4 5 8 10 10 10 10 11 11 11 11
9 9 9 9 10 9 10 9 9 9 9 7 7 7 7 6 6 6 6 6 6 6 6 6 5 5 5 4 4 3 3 4 3 3 3 2 3 3 4 3 1 0 2 1 1 1 2 2 2 3 2 1 1 1 2 3 3 3 3 3 3 3 4 3 3 4 2 0 5 5 1 2 3 4 5 6 7 10 10 10 10 10 10 11 11
9 8 10 10 10 10 10 9 10 9 9 7 7 6 6 6 6 6 6 6 6 5 5 5 5 6 5 5 4 4 4 4 3 3 3 3 4 3 2 1 1 1 1 2 2 1 2 1 2 2 3 2 1 2 3 3 4 4 4 3 4 4 3 3 4 3 4 2 7 4 1 3 3 4 5 6 7 8 11 10 10 10 10 11 11
9 9 9 9 10 11 10 10 10 9 10 8 7 6 6 6 6 6 6 6 5 6 5 5 5 5 5 4 5 5 4 4 4 4 4 4 4 3 2 1 2 1 0 2 1 1 2 2 2 2 2 3 2 2 2 3 4 5 4 4 3 4 4 4 3 3 4 2 5 6 2 2 3 4 4 6 7 8 11 12 12 11 10 10 11
10 12 10 10 10 12 11 11 9 9 9 8 7 7 6 6 6 5 6 5 5 6 6 5 4 5 5 5 5 5 5 4 4 4 4 4 3 3 2 2 2 2 0 2 2 2 2 2 2 3 2 3 3 3 3 4 4 5 5 4 4 4 4 4 3 3 4 3 1 8 4 2 2 4 4 5 7 8 10 13 13 12 11 11 10
12 12 11 10 11 11 12 12 10 10 8 8 8 7 6 6 6 6 6 5 6 5 5 4 5 5 5 6 6 5 5 5 4 4 3 3 3 3 3 2 1 2 2 2 1 2 2 2 3 4 3 3 3 3 3 5 4 3 3 4 3 4 3 4 3 3 3 4 4 6 5 2 2 3 3 4 6 8 10 13 13 12 12 11 11
12 11 11 10 11 12 12 12 10 9 8 9 7 7 6 7 6 6 6 6 6 6 5 5 5 5 5 6 6 6 5 4 4 4 3 3 3 3 3 3 2 2 3 2 2 2 2 3 3 3 3 3 3 3 4 4 4 3 3 4 4 5 2 3 3 3 3 3 2 1 7 4 2 3 2 2 5 7 9 11 14 14 13 12 11
12 12 11 10 10 12 12 11 11 9 8 9 8 8 7 7 7 7 6 7 6 6 6 6 5 5 5 4 5 6 6 6 5 4 4 4 3 4 3 3 3 2 2 3 1 2 2 2 3 4 3 4 4 2 3 3 3 3 2 4 4 4 3 3 4 4 3 2 2 3 4 6 4 3 2 2 3 6 8 9 12 13 14 13 11
13 13 11 10 11 13 12 12 12 10 9 10 8 8 8 8 8 7 7 7 7 6 6 6 6 5 5 5 5 5 6 5 5 5 5 4 4 4 4 3 3 3 3 3 3 2 3 3 2 3 4 4 3 2 2 3 3 2 3 2 4 4 4 4 5 3 2 3 2 3 3 3 8 4 3 2 3 5 7 9 10 11 13 13 13
11 13 12 12 13 13 12 12 12 11 11 11 9 8 8 7 7 8 7 7 7 7 7 6 6 6 5 5 5 5 5 5 5 5 5 5 5 5 5 4 4 3 2 1 2 2 2 2 2 2 3 4 3 2 2 4 2 2 4 3 4 3 3 4 4 4 3 3 3 2 4 3 2 10 8 6 5 4 6 10 10 10 12 13 13
10 10 13 13 11 9 9 10 12 12 12 10 9 8 8 7 7 7 7 6 6 6 7 6 6 5 5 5 5 5 5 5 5 4 5 6 6 5 5 5 3 2 2 2 3 2 2 2 3 3 3 4 2 2 3 3 3 2 3 3 3 3 3 4 3 3 3 3 3 3 3 3 3 4 4 10 7 5 4 8 11 10 10 11 12
10 11 13 13 12 10 9 8 11 13 12 11 10 9 8 8 7 7 6 7 7 7 6 6 6 5 5 5 5 4 4 4 4 4 5 5 6 6 6 5 2 2 3 1 3 3 3 3 2 4 3 3 2 2 4 4 3 3 2 3 3 3 4 4 2 4 3 2 3 2 2 3 3 3 4 4 10 8 4 5 9 10 10 10 11
12 11 11 12 12 12 11 11 11 12 12 12 11 10 9 8 7 7 7 7 6 6 6 6 6 5 5 5 4 4 4 4 5 4 5 5 6 6 6 3 2 3 2 1 2 4 2 3 3 4 2 4 3 4 4 3 3 3 2 3 2 2 3 3 3 3 3 3 2 2 1 2 3 3 3 4 4 8 7 3 5 8 10 10 11
13 11 11 12 12 13 11 12 13 13 12 12 11 10 9 9 9 8 7 7 6 6 6 6 6 5 5 5 4 4 5 5 6 6 5 6 6 6 5 4 2 3 2 3 3 3 3 3 3 3 3 3 4 5 4 3 2 3 3 3 3 2 3 2 2 2 1 2 2 1 0 1 1 2 3 3 3 3 9 7 5 5 7 8 8
13 13 12 12 12 12 12 12 11 12 11 11 11 10 9 9 8 8 7 7 7 6 5 4 5 5 5 5 5 5 5 6 6 6 5 2 7 5 5 4 4 3 3 3 4 3 4 4 3 3 3 3 4 4 5 4 3 3 3 4 2 3 1 2 1 2 1 1 0 2 1 2 3 3 3 3 3 3 2 8 8 8 7 6 5
12 14 13 12 12 11 11 12 12 11 11 11 10 10 10 9 8 8 7 7 6 6 5 5 5 5 6 5 5 5 6 6 6 6 4 4 4 5 6 6 4 4 3 4 4 4 3 3 3 3 3 4 3 4 4 4 4 3 4 2 2 2 2 1 2 1 2 2 4 4 1 2 3 3 4 3 3 2 3 2 2 4 5 7 3
13 12 14 13 13 12 12 11 12 12 10 10 9 9 9 8 8 8 7 7 7 7 7 6 6 7 6 6 5 5 5 5 6 6 5 5 6 5 6 6 5 4 4 6 5 3 3 4 4 4 5 4 4 2 4 4 4 4 3 2 2 2 1 0 1 0 1 1 2 4 4 3 3 4 4 3 4 3 3 3 2 2 1 6 4
14 14 14 15 14 13 13 13 11 12 11 9 9 9 9 9 8 9 9 8 8 8 7 7 8 7 6 6 5 5 5 6 5 5 5 6 6 6 6 5 5 4 4 3 2 2 1 2 3 3 4 4 4 3 3 4 3 4 2 2 2 2 2 1 1 1 0 0 1 1 2 2 3 3 3 3 4 4 3 3 2 2 2 2 2
15 15 15 15 14 15 14 13 12 12 12 11 10 10 9 9 8 9 9 8 8 8 8 8 7 6 6 6 6 6 6 6 6 6 6 6 6 5 5 5 4 4 3 1 0 1 2 3 2 3 3 3 3 3 2 3 4 2 2 2 2 2 1 2 2 2 0 1 1 2 1 3 5 4 3 2 2 3 3 3 4 4 3 2 2
16 16 15 15 15 15 14 13 12 12 12 12 10 10 10 9 9 8 9 8 8 7 7 6 6 7 6 6 6 6 6 7 7 7 7 7 7 6 6 5 5 3 3 3 2 2 2 2 3 3 3 3 3 2 2 4 5 1 1 4 2 3 3 2 1 2 1 1 1 3 4 5 5 3 2 3 4 4 4 4 4 4 4 3 2
15 15 16 17 14 13 14 14 13 13 12 12 11 11 11 10 10 8 8 8 7 7 8 7 7 7 7 6 7 7 8 7 6 6 5 5 6 6 4 4 4 3 2 2 2 2 2 3 3 3 3 5 4 1 1 1 4 2 4 2 2 4 3 4 2 0 1 3 2 4 3 3 5 4 4 5 5 4 4 4 4 4 3 3 3
15 15 16 15 12 15 15 15 13 13 12 12 12 11 10 9 8 8 8 8 8 7 7 7 8 7 7 8 8 8 7 6 5 5 5 5 5 5 4 5 4 3 2 2 2 3 3 4 3 3 3 3 3 2 1 2 2 3 5 3 4 5 2 3 3 3 3 4 3 4 4 2 4 4 3 4 3 3 3 5 4 3 3 3 3
16 15 15 16 15 14 15 15 13 12 13 14 13 11 10 9 9 9 9 9 8 8 9 8 8 8 8 7 8 8 6 6 5 5 5 5 5 6 6 5 4 3 2 2 2 3 3 3 2 3 2 2 4 2 3 1 3 3 3 4 3 4 5 4 4 1 4 2 3 0 1 2 3 2 2 2 3 3 3 3 3 4 4 4 4
16 15 15 15 16 15 15 15 14 12 12 13 14 11 12 11 11 11 10 9 9 8 7 7 6 6 6 6 5 5 6 6 6 7 7 6 6 6 6 4 3 2 2 2 3 4 3 2 2 2 2 1 2 3 2 3 0 3 3 3 3 3 3 4 3 2 3 1 5 3 4 2 1 0 2 1 2 3 3 3 3 3 3 3 3
17 16 15 15 16 16 15 15 13 13 12 12 13 13 12 12 11 11 10 10 10 8 8 7 7 7 6 7 5 5 6 7 7 7 8 7 7 7 6 5 4 4 3 3 3 3 1 2 2 2 1 2 2 3 3 3 3 2 0 2 1 1 2 1 2 4 4 4 4 3 3 3 2 2 4 2 2 3 1 1 1 0 1 2 2
18 16 16 15 15 15 15 15 14 13 12 14 13 14 13 12 11 11 11 10 10 9 8 8 8 7 8 7 6 6 6 7 8 8 8 8 7 7 6 6 5 4 4 4 4 3 4 3 3 3 3 2 2 2 2 2 3 2 2 1 0 1 1 1 1 2 4 3 4 2 2 1 4 3 1 1 1 1 1 2 1 2 1 1 1
17 16 16 15 15 14 15 16 16 13 13 14 13 14 14 12 12 12 12 11 9 9 9 8 8 7 8 8 7 6 6 7 8 8 8 8 8 7 7 7 6 6 5 5 4 4 4 4 4 4 3 2 1 2 2 1 2 2 1 1 1 1 1 2 2 2 2 2 4 5 4 3 3 1 2 1 3 2 2 1 2 2 1 1 1
17 17 16 15 15 15 16 16 16 13 14 14 15 15 14 13 12 13 13 13 13 11 10 9 8 8 8 8 7 7 7 8 8 7 8 9 9 8 8 7 7 6 5 4 5 5 5 4 4 3 3 3 2 3 3 2 2 2 2 2 2 3 2 3 2 3 3 3 4 5 5 4 6 5 2 2 3 2 2 2 3 2 1 3 1
Wind_Direction
135 135 136 147 154 137 134 130 127 119 129 130 126 125 126 128 130 133 130 127 121 116 118 119 115 110 103 98 94 90 84 78 75 73 72 72 73 74 75 73 73 72 72 73 74 73 70 70 68 63 57 53 55 58 60 57 56 52 57 50 47 46 61 66 65 67 77 86 91 92 89 89 89 88 87 89 92 93 97 107 130 113 105 114 115
138 145 140 144 147 151 139 130 130 133 127 127 126 127 121 122 128 131 129 127 124 120 121 120 114 106 99 93 89 86 82 77 75 74 74 75 77 78 76 75 74 73 72 72 71 69 67 65 67 64 60 56 49 52 54 56 53 56 62 64 49 55 50 62 56 56 57 74 87 91 92 84 86 90 89 88 89 87 81 56 355 100 104 103 115
131 140 145 139 146 157 152 144 153 142 134 130 125 123 119 124 123 126 126 127 127 127 122 115 106 101 97 93 89 87 84 81 79 79 81 84 83 79 78 77 77 76 72 69 68 65 63 63 63 61 58 56 53 49 51 52 52 53 58 64 62 54 58 62 58 40 47 64 84 99 100 95 88 93 90 87 85 85 75 59 66 28 109 112 114
128 136 140 137 148 154 157 147 152 144 132 131 131 129 127 115 134 129 128 130 131 131 123 115 108 104 99 93 91 89 87 84 82 84 86 86 84 82 80 79 78 75 71 68 67 64 60 59 60 58 57 54 51 50 48 49 53 48 54 62 59 47 53 63 61 46 39 36 42 329 93 106 102 93 93 86 88 84 82 76 75 85 108 103 100
122 133 136 140 145 155 152 147 142 137 131 130 131 131 129 132 136 130 131 132 132 131 124 117 112 105 98 95 92 90 88 85 87 90 89 87 87 86 84 81 76 73 71 68 63 61 59 56 56 53 52 51 45 39 39 42 41 43 48 64 64 59 59 62 65 57 34 18 330 288 64 78 96 93 93 87 82 89 88 89 92 101 104 113 116
135 141 140 145 149 147 142 142 139 133 127 127 129 128 129 129 130 129 129 126 128 130 126 120 112 105 101 99 98 95 93 92 93 94 93 91 89 85 83 79 77 73 70 68 64 60 56 51 52 50 47 46 46 39 34 36 35 44 39 54 70 64 61 64 63 71 33 353 276 37 59 65 82 100 93 93 83 79 90 87 97 107 115 124 133
136 143 146 143 140 135 142 140 138 133 125 119 119 131 134 133 134 131 128 129 130 132 127 119 110 106 106 104 100 99 98 99 98 95 91 89 88 84 82 80 78 74 70 65 62 59 54 49 46 48 44 41 40 36 32 25 29 39 35 40 67 67 60 67 75 59 333 253 203 44 72 63 84 94 104 90 97 99 94 96 102 117 119 122 127
135 144 145 138 135 131 138 139 140 132 126 131 128 134 138 142 138 136 134 135 135 131 124 117 112 112 113 107 104 102 101 100 98 91 89 86 82 80 76 74 71 70 68 64 60 59 54 44 45 44 43 42 32 31 27 18 18 32 32 33 41 58 52 50 96 95 272 274 43 51 47 65 67 91 107 104 107 106 104 114 114 122 120 129 144
139 138 138 135 126 133 139 130 139 139 139 144 142 148 150 145 140 136 138 138 136 131 126 121 124 125 121 115 110 108 105 102 94 90 86 82 78 76 75 72 69 68 68 62 57 55 52 50 44 40 29 24 29 28 25 14 14 11 21 23 30 33 29 18 36 243 214 14 3 80 67 65 78 103 109 117 111 116 115 119 137 122 116 115 115
134 134 136 135 137 128 138 138 134 147 141 140 141 153 148 147 140 139 140 139 138 136 134 133 134 130 126 125 120 115 109 100 91 88 87 82 81 79 79 76 72 65 64 62 57 47 45 42 40 35 29 26 20 20 16 15 12 4 7 6 18 24 19 10 359 342 15 73 119 97 72 20 83 81 115 118 116 115 121 62 36 77 99 113 58
138 134 135 136 127 135 136 133 137 141 143 139 139 148 152 150 150 144 143 142 140 138 137 137 136 133 134 131 125 120 113 101 93 88 83 82 83 83 78 74 68 64 61 55 51 46 46 41 36 40 25 22 14 15 11 11 10 3 1 3 6 2 6 1 320 253 35 41 88 154 125 178 62 116 131 131 128 129 116 114 117 119 129 130 140
138 133 140 123 126 139 130 135 144 140 145 145 146 154 154 154 150 146 150 145 144 141 140 140 138 138 141 134 132 124 112 103 97 91 87 83 77 74 74 71 67 64 58 55 52 43 41 43 42 49 32 10 7 6 360 2 3 357 355 355 355 350 346 358 320 37 26 32 61 9 98 131 102 105 135 132 122 101 122 124 127 126 130 126 134
138 140 126 133 135 137 140 144 142 145 145 147 150 151 160 154 150 152 154 150 147 145 144 144 145 147 145 143 134 126 115 109 102 99 94 86 78 73 71 68 63 60 54 52 44 39 34 35 45 51 39 9 2 2 354 5 350 355 358 354 347 341 340 342 321 5 30 40 40 116 95 99 118 95 131 133 129 134 117 116 109 138 135 138 131
138 135 133 131 132 143 144 148 151 151 152 153 151 157 164 156 157 158 159 151 151 151 150 151 153 152 150 145 138 130 121 113 110 107 103 97 86 72 66 65 59 54 51 46 40 35 21 22 26 28 22 7 356 348 344 350 350 344 350 357 351 344 339 295 281 325 35 28 48 62 103 129 101 105 124 140 146 140 148 157 142 138 148 142 144
137 133 132 128 133 143 145 152 155 152 151 155 161 160 156 156 159 169 157 157 156 153 157 157 153 154 150 144 135 130 125 119 117 113 109 99 86 71 63 59 57 52 51 50 45 12 347 356 359 7 359 356 352 341 335 332 343 346 347 343 346 338 334 344 291 68 53 50 60 321 120 117 102 130 147 145 150 151 158 165 156 158 169 157 150
140 137 135 137 140 145 151 156 160 160 155 156 159 159 157 162 173 167 160 160 159 159 158 157 154 153 148 144 138 130 128 125 118 114 104 93 78 76 61 59 53 53 52 50 68 341 318 351 346 358 355 351 346 337 322 326 329 334 327 310 318 345 333 328 289 11 108 13 62 340 173 118 131 136 163 158 158 152 164 159 151 174 185 165 161
137 139 141 144 148 152 152 158 160 153 155 161 164 165 164 165 180 165 164 163 161 159 159 155 155 152 145 140 141 137 134 134 129 116 110 87 76 57 56 52 49 49 52 54 70 360 337 345 340 352 346 4 346 331 321 324 319 325 333 328 338 335 334 318 293 316 19 45 1 28 51 124 140 155 164 175 162 165 158 172 170 178 198 166 174
140 139 134 140 144 150 150 152 153 159 160 165 174 173 168 170 172 168 167 165 161 159 160 159 156 152 151 151 152 159 156 149 150 143 133 124 121 73 65 55 46 38 49 63 56 323 336 316 312 325 323 332 331 322 318 312 324 347 344 339 324 353 333 300 314 342 358 349 263 240 61 69 130 159 177 179 173 174 159 170 179 179 178 175 175
143 144 141 147 151 152 150 152 159 157 158 164 165 168 169 172 168 170 166 163 163 164 161 160 159 160 160 168 171 176 175 169 157 167 155 177 100 211 86 57 31 39 52 71 110 265 265 263 275 303 301 305 296 295 303 318 353 340 343 333 330 337 274 255 30 355 308 248 29 19 71 97 164 168 185 187 183 177 163 169 177 175 179 175 176
143 147 148 156 156 153 150 157 158 157 162 161 161 163 166 169 169 166 167 169 168 165 167 165 166 169 176 176 185 191 186 185 171 191 180 176 141 350 44 28 16 19 34 55 100 193 227 220 240 244 260 260 252 265 290 341 341 354 335 312 302 278 247 58 136 118 312 2 318 70 104 98 151 210 200 192 188 187 172 174 178 179 179 187 178
151 154 158 159 155 152 155 155 157 159 161 158 160 165 159 169 169 169 173 173 171 170 169 174 176 179 185 182 192 226 206 195 171 211 150 202 102 154 54 29 7 12 40 63 86 68 47 154 208 217 218 226 224 226 198 35 37 1 345 320 289 244 53 336 268 174 159 172 245 101 119 134 210 209 220 203 188 192 182 180 179 180 182 187 184
160 158 161 165 156 156 158 158 156 161 161 160 163 169 158 181 173 170 176 173 174 176 178 193 191 190 197 184 220 208 218 198 223 216 236 205 176 100 57 358 2 30 38 44 83 108 119 83 164 219 264 241 239 242 165 148 142 345 313 287 272 19 332 325 289 239 207 151 207 101 109 141 197 235 229 214 202 192 191 185 181 182 186 183 188
164 163 162 167 163 158 162 163 159 163 166 167 164 170 167 177 177 177 171 181 180 190 196 199 201 204 197 209 215 222 215 229 228 286 326 5 286 319 218 241 225 235 234 281 157 146 159 159 178 214 211 222 231 33 308 352 151 183 228 245 339 337 341 301 286 281 236 64 151 93 120 171 201 227 238 219 210 200 195 187 186 186 187 187 187
168 167 163 166 167 166 166 166 164 166 171 171 170 171 169 174 179 178 180 182 186 192 200 200 201 204 203 215 222 213 237 232 231 221 242 241 209 188 200 213 202 186 194 238 170 160 182 169 166 202 204 218 338 321 2 355 340 348 344 313 342 340 302 316 302 311 307 106 89 104 130 209 230 228 222 226 215 210 203 192 188 192 192 189 190
172 165 164 170 172 170 170 170 169 171 179 174 177 174 169 180 179 183 183 185 189 189 192 197 202 208 211 216 226 226 239 249 231 255 263 282 293 295 214 208 77 67 169 322 280 64 238 30 181 222 344 281 304 354 344 346 329 324 334 338 320 325 307 298 306 310 309 250 105 115 270 247 228 226 221 217 220 211 207 199 194 196 198 197 196
170 176 174 170 175 177 178 171 173 181 185 185 181 171 177 183 182 186 186 189 191 196 197 197 200 204 216 224 236 221 236 242 245 249 260 257 272 274 278 264 248 242 168 307 8 333 320 20 333 337 331 327 333 340 334 322 322 321 317 339 322 308 307 308 310 314 307 305 110 100 225 263 255 235 224 214 211 213 210 201 193 198 200 204 203
179 183 179 179 177 182 184 181 179 183 188 189 187 181 187 188 189 189 193 193 197 199 204 203 205 201 216 234 237 230 234 243 237 237 250 258 260 261 268 271 252 267 6 292 316 292 313 331 342 327 332 312 316 316 288 316 319 310 314 315 320 304 301 305 298 296 295 289 107 127 172 266 274 263 243 224 210 206 214 195 191 201 201 206 210
185 185 182 184 183 185 185 188 185 189 187 191 195 191 189 194 191 186 208 198 207 205 207 207 205 205 214 227 241 258 251 245 247 248 250 258 263 282 285 280 272 266 347 290 290 327 323 320 321 323 294 297 298 296 302 307 314 308 308 294 297 296 299 298 300 304 294 280 248 136 151 214 252 273 257 237 219 206 207 194 195 199 205 207 212
192 190 184 185 187 187 183 189 188 190 191 192 197 197 195 200 196 198 204 196 215 218 216 214 208 216 207 221 237 250 251 254 255 256 264 272 278 276 275 273 287 286 281 275 288 308 295 315 325 316 313 301 294 292 317 305 286 284 302 311 298 285 276 290 298 296 285 301 280 122 126 165 212 253 258 247 224 212 206 197 202 204 208 211 214
192 192 188 186 186 186 189 189 191 189 194 198 199 199 198 200 203 207 205 203 216 221 215 222 222 221 219 214 228 245 258 261 260 265 262 262 269 266 261 262 277 284 270 277 292 285 301 311 316 310 305 298 307 322 301 312 309 333 319 321 307 302 314 281 284 281 301 270 272 140 145 158 212 248 268 269 215 214 211 213 214 215 213 212 214
191 195 192 191 185 189 189 190 191 193 195 205 200 203 204 208 206 209 209 211 214 217 221 229 231 226 227 218 220 233 251 258 264 270 267 261 260 262 264 271 266 274 278 285 290 298 309 315 325 312 307 297 296 307 296 312 313 295 343 313 311 305 300 292 282 243 248 244 281 282 189 173 188 220 269 263 237 224 224 219 220 218 218 216 213
194 197 194 192 191 193 191 189 193 191 200 206 202 207 207 211 211 214 216 217 216 220 219 224 227 235 234 229 225 235 242 257 263 266 268 270 268 269 267 265 272 265 277 295 298 303 295 304 305 302 297 290 296 282 308 292 314 335 313 284 313 308 311 312 287 314 295 268 257 255 271 201 173 182 196 260 251 241 230 230 227 224 220 217 213
196 196 197 195 198 195 193 192 196 192 200 208 204 209 208 210 211 215 217 215 219 221 225 222 225 230 228 233 244 242 245 255 262 268 275 274 275 276 273 267 263 268 277 304 292 280 287 267 265 272 282 288 286 306 262 286 317 342 312 356 318 314 309 290 283 272 306 300 221 242 263 265 243 170 178 188 212 227 226 220 222 224 224 221 220
197 193 200 200 203 195 197 195 197 198 199 208 209 210 213 213 216 216 217 217 219 222 224 226 224 230 224 221 233 238 245 252 260 268 277 279 274 267 270 270 270 277 268 257 267 285 284 283 284 280 285 282 306 311 307 314 322 324 324 338 296 328 311 287 304 313 290 278 335 273 251 251 234 249 183 176 190 203 225 218 215 219 222 226 228
199 196 197 199 200 198 198 198 196 201 199 209 209 217 217 223 218 222 221 221 225 224 224 221 221 225 228 220 217 229 233 239 247 264 272 278 274 265 262 257 249 252 265 250 291 283 273 274 290 289 300 287 294 316 294 313 317 301 311 316 311 324 298 298 319 298 273 318 294 297 300 266 254 245 230 217 170 186 200 207 210 216 223 229 229
200 197 194 196 200 201 196 202 192 201 200 206 211 215 219 222 228 226 229 218 229 228 229 232 226 222 228 233 211 218 225 222 240 246 257 256 261 264 254 253 234 260 267 270 265 266 272 285 288 283 270 298 314 292 292 299 300 303 320 291 294 295 282 300 303 281 359 325 322 330 311 315 299 295 326 270 247 151 169 197 218 220 226 230 233
197 196 196 194 199 201 199 206 201 198 204 204 208 212 216 219 223 228 226 226 229 230 226 229 228 226 224 230 212 221 229 226 230 229 232 239 254 259 263 249 239 248 239 244 252 260 266 261 265 271 296 293 288 294 297 297 304 301 284 284 306 293 281 298 281 334 19 294 282 178 38 30 360 276 241 259 266 189 161 176 203 236 228 231 238
198 199 199 198 200 201 203 207 209 202 201 206 207 210 213 218 220 225 227 230 227 229 226 219 225 230 226 225 218 219 229 231 229 222 230 202 255 247 256 248 234 234 233 237 250 261 260 265 262 248 276 300 295 309 309 317 321 305 306 304 301 285 294 271 327 292 272 259 104 345 21 4 11 25 360 351 337 317 190 167 180 202 221 237 250
201 200 201 201 205 205 206 206 212 212 203 203 203 209 213 215 221 223 218 216 226 229 224 213 229 229 230 224 213 225 228 232 234 227 225 200 226 234 235 229 236 225 223 225 237 253 263 255 257 256 247 264 293 292 309 309 298 276 277 285 262 244 285 326 292 333 323 6 12 306 49 39 24 37 28 23 47 30 352 331 228 213 189 192 249
203 200 202 203 204 206 208 207 209 211 211 203 201 207 210 210 212 212 214 216 216 216 215 219 221 225 225 221 218 224 228 232 234 227 178 207 228 230 254 227 217 218 221 243 241 228 238 259 253 259 264 259 237 271 265 281 293 293 290 264 205 173 240 327 267 246 264 21 31 331 358 43 33 24 25 29 19 40 33 27 10 353 34 141 132
201 201 202 204 205 207 205 210 207 208 209 204 204 207 207 208 210 214 219 214 217 212 213 218 225 229 226 213 206 220 219 222 225 226 202 219 230 234 223 212 214 216 237 239 250 314 348 299 292 269 279 278 259 230 244 268 291 269 220 234 149 194 171 143 246 224 301 67 27 14 8 13 42 20 49 23 22 29 21 18 9 23 36 358 147
201 202 202 204 205 207 208 208 207 208 211 212 212 212 212 213 212 217 223 223 217 216 216 217 220 225 207 202 202 214 210 204 210 214 215 217 222 222 213 210 204 208 208 156 86 198 229 244 256 264 235 269 276 281 308 266 240 292 294 195 156 163 276 201 207 329 257 341 115 107 73 43 24 19 19 46 49 43 40 39 11 13 6 335 342
204 204 205 204 205 208 210 209 210 209 211 211 212 214 215 217 219 221 224 228 225 229 235 235 234 231 217 207 211 209 209 208 207 208 220 219 223 215 208 204 200 165 171 187 201 214 227 244 238 253 255 221 271 281 274 260 304 357 312 272 201 230 174 246 204 222 330 80 24 62 29 46 55 35 5 35 40 43 44 38 31 21 15 2 4
205 205 205 207 207 208 209 210 212 213 214 212 211 214 215 215 218 224 225 234 235 227 237 235 232 230 224 215 209 212 217 230 226 227 230 236 228 222 212 185 174 168 191 207 202 221 197 220 226 226 265 280 238 212 258 263 297 304 243 270 328 299 249 187 165 269 316 22 33 63 72 79 73 38 34 27 38 34 50 41 45 35 28 19 4
203 205 205 205 206 207 208 209 211 212 213 211 208 211 210 208 206 212 223 225 233 234 232 229 224 226 230 215 217 218 225 234 232 223 224 226 226 216 200 185 181 180 178 213 223 226 215 221 223 231 235 284 298 286 235 294 293 301 314 277 237 214 277 103 269 163 246 209 107 107 103 100 66 53 41 42 36 29 38 58 41 54 43 37 32
204 205 204 205 205 206 207 208 211 212 212 212 209 208 211 209 199 208 217 225 228 223 224 225 223 220 228 226 216 219 225 225 216 216 214 216 210 207 197 196 193 187 195 235 239 245 234 247 207 246 240 232 290 297 287 213 289 287 278 288 325 347 338 20 292 174 288 280 150 332 20 41 91 84 57 63 51 43 37 52 56 64 50 50 40
204 203 203 204 204 207 206 206 209 210 210 210 207 210 216 218 220 222 223 223 225 225 225 231 235 226 225 229 222 204 208 213 207 207 209 206 206 202 197 204 200 206 208 226 228 233 221 213 218 220 245 230 230 271 269 258 235 278 267 289 310 319 350 320 325 318 216 147 319 259 132 112 342 131 119 63 81 46 39 37 42 46 67 51 57
203 202 203 204 205 206 206 207 209 211 208 207 207 209 218 217 218 222 224 226 226 226 215 219 223 229 222 227 216 206 203 212 213 203 205 199 199 198 199 204 203 223 214 220 239 247 254 213 217 219 215 206 218 255 280 307 279 258 45 285 240 17 4 338 342 339 326 300 175 246 213 136 180 24 348 1 37 65 53 30 50 355 74 81 67
203 202 203 204 205 206 208 208 210 210 210 206 205 208 214 216 217 220 223 224 226 227 221 216 220 218 223 216 215 207 197 210 215 209 205 202 197 199 199 202 207 217 215 224 223 209 213 219 210 202 205 204 220 247 256 272 268 240 178 210 294 237 203 278 70 262 307 299 271 223 258 304 272 160 58 303 45 136 253 136 302 296 270 145 120
204 203 204 203 204 204 206 208 210 210 209 206 206 208 209 211 215 219 222 222 222 225 226 216 215 215 219 216 206 201 209 206 215 214 206 206 200 198 202 207 212 221 216 225 221 223 213 220 213 219 222 225 199 223 244 245 264 334 147 172 190 47 308 277 260 253 237 257 292 299 285 259 248 225 219 250 10 308 320 349 246 227 261 270 227
202 201 203 204 203 204 205 207 208 208 206 207 208 211 209 209 213 216 220 222 221 222 221 220 217 213 216 214 209 205 215 216 213 203 213 209 202 202 205 209 223 222 217 226 222 223 207 205 213 200 205 222 204 212 230 228 227 225 199 187 203 217 235 270 279 291 283 264 272 284 288 323 334 319 259 324 319 289 260 258 272 241 260 255 242